Mattoon, IL

11:35 AM CST on December 11, 2019 (GMT -0600)
Coles County Memorial

Weather History for KMTO - May, 2019

Change the Weather History Date:

Thursday, May 16, 2019

  Actual Average Record
Temperature  
Mean Temperature 70 °F 63 °F  
Max Temperature 83 °F 73 °F 91 °F (2001)
Min Temperature 57 °F 53 °F 36 °F (1959)
Degree Days  
Heating Degree Days 0 4  
Month to date heating degree days 112 86  
Since 1 July heating degree days 5499 5348  
Cooling Degree Days 5 3  
Month to date cooling degree days 10 24  
Year to date cooling degree days 15 38  
Growing Degree Days 20 (Base 50)    
Moisture  
Dew Point 61 °F    
Average Humidity 78    
Maximum Humidity 100    
Minimum Humidity 55    
Precipitation  
Precipitation T in 0.14 in 1.55 in (1990)
Month to date precipitation 0.81 2.42  
Year to date precipitation 9.83 12.40  
Sea Level Pressure  
Sea Level Pressure 29.88 in    
Wind  
Wind Speed 10 mph (South)    
Max Wind Speed 22 mph    
Max Gust Speed 33 mph    
Visibility 7 miles    
Events Fog , Rain , Thunderstorm    
T = Trace of Precipitation, MM = Missing Value Source: NWS Daily Summary

Daily Weather History Graph

Daily Weather History Graph

Search for Another Location

Airport or City:

Astronomy

May. 16, 2019 Rise Set
Actual Time 5:38 AM CDT 8:01 PM CDT
Civil Twilight 5:08 AM CDT 8:31 PM CDT
Nautical Twilight 4:30 AM CDT 9:09 PM CDT
Astronomical Twilight 3:49 AM CDT 9:50 PM CDT
Moon 5:41 PM CDT (5/16) 4:35 AM CDT (5/16)
Length of Visible Light 15h 23m
Length of Day
14h 22m
Waxing Gibbous, 94% of the Moon is Illuminated
May 16
Waxing Gibbous
May 18
Full
May 26
Last Quarter
Jun 3
New
Jun 10
First Quarter

Hourly Weather History & Observations

Time (CDT) Temp. Heat Index Dew Point Humidity Pressure Visibility Wind Dir Wind Speed Gust Speed Precip Events Conditions
12:53 AM 60.1 °F - 57.9 °F 93% 29.96 in 7.0 mi South 8.1 mph - N/A   Clear
1:53 AM 59.0 °F - 57.0 °F 93% 29.95 in 6.0 mi South 8.1 mph - N/A   Clear
2:53 AM 57.9 °F - 57.0 °F 97% 29.95 in 6.0 mi South 5.8 mph - N/A   Clear
3:53 AM 57.9 °F - 57.0 °F 97% 29.95 in 6.0 mi South 5.8 mph - N/A   Clear
4:53 AM 57.9 °F - 57.0 °F 97% 29.94 in 5.0 mi South 8.1 mph - N/A   Clear
5:08 AM 57.9 °F - 57.0 °F 97% 29.95 in 5.0 mi South 6.9 mph - N/A   Scattered Clouds
5:17 AM 57.9 °F - 57.0 °F 97% 29.96 in 2.5 mi South 6.9 mph - N/A   Mostly Cloudy
5:27 AM 57.0 °F - 57.0 °F 100% 29.96 in 1.0 mi South 5.8 mph - N/A   Overcast
5:38 AM 57.0 °F - 55.9 °F 96% 29.96 in 0.8 mi South 6.9 mph - N/A   Overcast
5:53 AM 57.0 °F - 55.9 °F 96% 29.95 in 0.2 mi South 6.9 mph - N/A Fog Fog
6:28 AM 57.0 °F - 57.0 °F 100% 29.96 in 1.5 mi South 6.9 mph - N/A   Overcast
6:39 AM 57.9 °F - 57.0 °F 97% 29.96 in 2.5 mi South 8.1 mph - N/A   Mostly Cloudy
6:44 AM 57.0 °F - 57.0 °F 100% 29.96 in 3.0 mi South 8.1 mph - N/A   Scattered Clouds
6:53 AM 57.9 °F - 57.0 °F 97% 29.95 in 3.0 mi South 8.1 mph - N/A   Partly Cloudy
7:53 AM 61.0 °F - 59.0 °F 93% 29.94 in 7.0 mi South 9.2 mph - N/A   Clear
8:53 AM 66.0 °F - 59.0 °F 78% 29.93 in 10.0 mi South 11.5 mph - N/A   Clear
9:53 AM 69.1 °F - 59.0 °F 70% 29.91 in 10.0 mi South 17.3 mph 25.3 mph N/A   Clear
10:42 AM 70.0 °F - 61.0 °F 73% 29.93 in 10.0 mi South 13.8 mph - N/A   Mostly Cloudy
10:53 AM 71.1 °F - 61.0 °F 70% 29.92 in 10.0 mi South 15.0 mph - N/A   Mostly Cloudy
11:53 AM 73.9 °F - 63.0 °F 68% 29.90 in 10.0 mi South 12.7 mph - N/A   Clear
12:32 PM 75.0 °F - 63.0 °F 66% 29.89 in 10.0 mi South 15.0 mph 26.5 mph N/A Thunderstorm Clear
12:51 PM 73.4 °F - 62.6 °F 69% 29.87 in 10.0 mi South 15.0 mph 25.3 mph 0.00 in Rain Light Rain
12:53 PM 73.0 °F - 63.0 °F 71% 29.86 in 10.0 mi South 13.8 mph 25.3 mph 0.00 in Rain Light Rain
1:53 PM 78.1 °F - 64.0 °F 62% 29.82 in 10.0 mi South 18.4 mph 31.1 mph 0.00 in   Clear
2:53 PM 81.0 °F 83.3 °F 66.9 °F 62% 29.79 in 10.0 mi South 12.7 mph 24.2 mph N/A   Clear
3:53 PM 82.0 °F 84.1 °F 66.0 °F 58% 29.76 in 10.0 mi SSW 13.8 mph 31.1 mph N/A   Clear
4:53 PM 82.0 °F 83.8 °F 64.9 °F 56% 29.78 in 10.0 mi SSW 15.0 mph 23.0 mph N/A   Scattered Clouds
5:53 PM 82.0 °F 83.8 °F 64.9 °F 56% 29.76 in 10.0 mi SW 9.2 mph 18.4 mph N/A   Partly Cloudy
6:53 PM 81.0 °F 83.0 °F 66.0 °F 60% 29.75 in 10.0 mi SSW 10.4 mph 21.9 mph N/A   Clear
7:53 PM 78.1 °F - 66.9 °F 68% 29.74 in 10.0 mi SSW 6.9 mph - N/A   Clear
8:53 PM 75.9 °F - 66.9 °F 74% 29.74 in 10.0 mi SSW 8.1 mph - N/A   Clear
9:53 PM 75.0 °F - 66.0 °F 73% 29.74 in 10.0 mi SSW 8.1 mph - N/A   Clear
10:53 PM 73.9 °F - 66.9 °F 79% 29.72 in 10.0 mi SSW 10.4 mph - N/A   Clear
11:53 PM 73.0 °F - 66.0 °F 79% 29.74 in 10.0 mi SSW 5.8 mph - N/A   Clear